Temp
72 72 72 71 72 72 72 71 71 71 71 71 71 71 70 70 79 80 80 77 75 75 75 75 75 75 75 76 75 75 75 75 75
72 71 71 71 71 71 71 71 70 70 70 70 70 69 68 75 78 79 79 75 76 76 75 75 75 75 75 75 74 75 75 75 75
71 71 70 70 70 70 70 70 69 69 69 69 69 68 67 76 77 77 77 73 75 75 75 74 74 74 74 74 74 74 74 74 73
70 69 69 69 69 69 69 68 68 68 68 68 67 67 67 73 76 78 76 71 75 75 74 73 73 73 73 72 73 73 73 73 73
69 69 67 67 67 68 67 67 67 66 66 66 66 66 67 77 76 77 71 71 74 73 73 72 72 72 72 72 72 71 72 71 71
71 64 65 65 66 66 66 66 66 66 66 66 67 65 75 76 75 74 69 71 73 73 72 72 72 72 72 72 71 71 71 71 70
71 65 63 64 64 64 65 66 68 70 74 74 70 74 75 75 74 69 67 70 71 72 71 71 71 71 71 71 70 71 70 70 70
74 73 73 72 67 72 72 73 73 73 73 73 74 73 73 74 74 67 66 68 70 70 71 70 70 70 70 69 69 69 69 69 69
73 73 72 72 72 72 72 72 73 73 73 73 73 73 73 73 73 66 64 66 68 69 70 70 70 69 70 69 68 68 68 68 68
72 72 72 71 71 71 71 71 71 72 72 73 73 72 72 73 72 72 63 64 66 67 68 68 68 68 68 69 68 68 68 68 67
71 70 70 70 70 70 70 69 69 70 71 71 72 71 72 71 71 71 66 63 63 65 66 66 67 67 67 68 68 67 67 67 66
71 69 69 68 69 69 69 69 69 69 70 69 71 70 70 70 70 70 70 65 62 63 64 64 65 65 66 67 67 67 67 66 66
70 70 69 68 68 68 68 67 66 66 67 66 68 68 68 68 69 69 69 69 68 61 61 61 62 63 64 65 66 66 66 66 66
71 69 68 68 67 67 66 66 65 64 64 65 67 66 65 67 69 68 67 67 66 66 60 60 59 60 62 63 64 65 65 65 65
69 69 68 67 67 66 65 64 65 64 63 65 66 65 66 66 66 66 68 66 65 65 64 63 63 60 61 62 63 63 63 64 65
68 68 68 67 65 64 64 64 63 63 62 62 63 65 65 66 66 66 65 64 64 63 63 62 61 62 63 62 60 60 62 62 63
68 67 66 65 64 64 63 61 61 62 61 57 58 57 61 64 65 63 63 63 63 63 63 62 61 59 59 58 58 58 59 61 63
66 65 65 63 63 62 61 60 59 57 60 59 56 53 53 55 61 62 62 62 61 61 60 60 60 59 57 58 57 55 56 59 61
64 64 63 63 62 61 60 61 59 58 56 59 60 58 55 51 50 60 61 60 60 59 58 58 58 58 56 55 54 54 55 57 59
63 62 62 61 61 60 60 59 59 58 56 56 55 56 56 55 50 47 52 58 58 59 57 57 57 58 56 55 54 53 54 56 57
MSLP
1017.80 1017.82 1017.78 1017.74 1017.70 1017.61 1017.61 1017.61 1017.56 1017.50 1017.36 1017.27 1017.14 1017.04 1016.79 1016.37 1015.62 1015.39 1015.24 1015.61 1015.80 1015.90 1015.90 1015.87 1015.87 1015.86 1015.81 1015.77 1015.71 1015.66 1015.58 1015.47 1015.36
1018.07 1018.09 1018.01 1017.99 1017.99 1017.97 1017.94 1017.90 1017.83 1017.75 1017.63 1017.49 1017.41 1017.24 1016.97 1016.32 1015.81 1015.68 1015.64 1016.13 1016.22 1016.18 1016.25 1016.26 1016.22 1016.17 1016.09 1016.03 1015.95 1015.87 1015.77 1015.64 1015.51
1018.31 1018.37 1018.36 1018.33 1018.30 1018.26 1018.19 1018.15 1018.11 1018.04 1017.92 1017.80 1017.69 1017.49 1017.08 1016.08 1016.03 1016.05 1016.04 1016.71 1016.56 1016.45 1016.52 1016.55 1016.48 1016.40 1016.36 1016.35 1016.26 1016.11 1015.96 1015.83 1015.75
1018.69 1018.74 1018.71 1018.67 1018.63 1018.59 1018.51 1018.43 1018.36 1018.29 1018.16 1018.02 1017.85 1017.63 1017.22 1016.63 1016.35 1016.15 1016.32 1016.89 1016.66 1016.61 1016.66 1016.66 1016.63 1016.60 1016.54 1016.45 1016.34 1016.21 1016.10 1016.04 1015.95
1018.92 1018.84 1019.04 1018.99 1018.89 1018.82 1018.73 1018.65 1018.54 1018.42 1018.31 1018.18 1017.97 1017.64 1017.26 1016.52 1016.47 1016.35 1017.16 1017.19 1016.87 1016.85 1016.92 1016.94 1016.89 1016.83 1016.74 1016.65 1016.47 1016.29 1016.20 1016.24 1016.22
1018.80 1019.36 1019.29 1019.21 1019.12 1019.00 1018.88 1018.76 1018.58 1018.28 1018.19 1018.06 1017.88 1017.59 1016.99 1016.74 1016.80 1016.83 1017.66 1017.48 1017.16 1017.08 1017.08 1017.08 1017.04 1016.90 1016.80 1016.68 1016.66 1016.64 1016.57 1016.51 1016.43
1018.93 1019.28 1019.33 1019.22 1019.17 1018.99 1018.83 1018.67 1018.35 1018.02 1017.75 1017.63 1017.61 1017.37 1017.25 1017.06 1017.11 1017.70 1018.05 1017.85 1017.56 1017.39 1017.34 1017.22 1017.15 1017.06 1016.85 1016.59 1016.70 1016.73 1016.76 1016.82 1016.72
1018.54 1018.58 1018.67 1018.69 1018.87 1018.54 1018.35 1018.14 1018.17 1018.08 1017.97 1017.78 1017.54 1017.57 1017.48 1017.22 1017.24 1017.98 1018.29 1018.19 1017.95 1017.80 1017.57 1017.49 1017.39 1017.26 1017.12 1017.10 1017.06 1017.03 1017.02 1016.96 1016.87
1018.56 1018.61 1018.82 1018.75 1018.71 1018.61 1018.53 1018.33 1018.17 1018.03 1017.91 1017.77 1017.69 1017.56 1017.52 1017.43 1017.35 1018.04 1018.35 1018.49 1018.35 1018.13 1017.93 1017.81 1017.67 1017.60 1017.45 1017.41 1017.31 1017.26 1017.17 1017.15 1017.06
1018.66 1018.83 1018.91 1018.97 1018.90 1018.86 1018.69 1018.55 1018.38 1018.14 1018.05 1017.78 1017.61 1017.56 1017.53 1017.47 1017.46 1017.53 1018.27 1018.57 1018.58 1018.43 1018.32 1018.26 1018.18 1018.02 1017.81 1017.63 1017.54 1017.51 1017.41 1017.28 1017.17
1018.84 1018.96 1019.09 1019.07 1019.17 1019.17 1019.02 1018.82 1018.62 1018.33 1018.10 1017.89 1017.63 1017.63 1017.57 1017.63 1017.64 1017.60 1018.16 1018.46 1018.69 1018.63 1018.52 1018.47 1018.39 1018.32 1018.17 1017.97 1017.80 1017.75 1017.72 1017.55 1017.35
1018.92 1019.05 1019.08 1019.28 1019.37 1019.26 1019.12 1018.91 1018.67 1018.39 1018.21 1018.02 1017.73 1017.75 1017.79 1017.69 1017.64 1017.72 1017.82 1018.25 1018.54 1018.68 1018.75 1018.73 1018.69 1018.58 1018.35 1018.15 1018.00 1017.88 1017.76 1017.65 1017.53
1018.99 1018.99 1019.11 1019.34 1019.32 1019.33 1019.16 1019.01 1018.95 1018.62 1018.40 1018.24 1017.98 1017.94 1017.82 1017.89 1017.83 1017.88 1017.87 1017.88 1018.09 1018.65 1018.72 1018.89 1018.84 1018.79 1018.62 1018.38 1018.10 1017.85 1017.63 1017.49 1017.44
1018.93 1019.02 1019.21 1019.32 1019.30 1019.24 1019.33 1019.14 1019.13 1018.90 1018.65 1018.36 1018.15 1018.24 1018.13 1017.96 1017.83 1017.95 1018.07 1018.16 1018.34 1018.39 1018.75 1018.76 1018.86 1018.81 1018.66 1018.40 1018.14 1017.98 1017.84 1017.61 1017.34
1019.00 1019.09 1019.25 1019.34 1019.24 1019.28 1019.34 1019.35 1019.27 1019.15 1018.96 1018.52 1018.03 1018.25 1018.22 1018.07 1018.12 1018.17 1018.17 1018.34 1018.55 1018.58 1018.67 1018.64 1018.52 1018.54 1018.51 1018.46 1018.39 1018.07 1017.58 1017.42 1017.28
1019.02 1019.07 1019.24 1019.35 1019.39 1019.57 1019.60 1019.51 1019.38 1019.16 1019.22 1018.50 1018.10 1017.88 1018.07 1018.12 1018.12 1018.15 1018.28 1018.51 1018.72 1018.79 1018.74 1018.62 1018.53 1018.43 1018.35 1018.22 1018.34 1018.29 1017.89 1017.33 1016.98
1019.07 1019.16 1019.31 1019.52 1019.57 1019.63 1019.73 1019.82 1019.64 1019.32 1019.62 1019.37 1018.60 1017.96 1017.91 1017.92 1017.89 1018.39 1018.53 1018.72 1018.79 1018.71 1018.67 1018.77 1018.67 1018.59 1018.48 1018.33 1018.37 1018.36 1018.20 1017.57 1016.99
1019.25 1019.34 1019.49 1019.65 1019.75 1019.77 1019.96 1020.10 1020.07 1019.84 1019.75 1019.91 1019.74 1019.02 1018.57 1018.56 1018.28 1018.29 1018.54 1018.70 1018.74 1018.63 1018.75 1018.72 1018.71 1018.67 1018.67 1018.54 1018.40 1018.63 1018.42 1017.96 1017.38
1019.35 1019.50 1019.65 1019.69 1019.85 1020.01 1020.16 1020.27 1020.36 1020.33 1020.06 1020.04 1020.14 1020.20 1020.17 1019.64 1018.92 1018.48 1018.42 1018.70 1018.57 1018.63 1018.64 1018.52 1018.43 1018.42 1018.52 1018.48 1018.58 1018.62 1018.42 1018.01 1017.53
1019.43 1019.61 1019.76 1019.86 1020.06 1020.15 1020.30 1020.43 1020.49 1020.54 1020.54 1020.49 1020.48 1020.39 1020.33 1020.37 1020.17 1019.39 1018.99 1018.72 1018.58 1018.53 1018.52 1018.45 1018.32 1018.28 1018.41 1018.40 1018.41 1018.54 1018.26 1017.88 1017.42
Wind_Speed
10 10 10 10 10 11 11 11 10 11 11 11 10 11 11 12 4 4 3 11 12 10 10 10 9 8 8 9 10 10 8 5 3
10 10 11 10 10 10 10 11 10 10 10 11 11 11 12 8 4 4 4 10 9 8 10 9 9 9 9 8 10 11 11 11 8
10 10 10 10 10 10 11 10 10 10 10 11 11 11 12 7 4 4 5 9 9 8 8 8 8 8 7 7 8 8 9 10 10
9 10 10 10 10 10 10 10 10 9 9 10 10 10 11 9 4 5 7 12 9 7 7 6 7 7 6 6 6 6 6 8 9
7 8 9 9 9 9 10 10 9 7 6 7 8 9 12 5 3 3 7 10 9 7 7 8 9 9 8 8 7 4 6 8 9
9 8 7 7 7 8 8 8 7 6 5 2 5 10 4 4 4 6 11 10 10 9 8 7 9 9 8 7 5 5 6 8 9
6 5 4 4 1 2 1 2 6 6 6 4 4 5 6 4 4 7 10 10 10 9 8 8 8 8 12 3 2 4 5 7 9
2 3 2 2 1 4 4 4 5 6 5 5 5 5 5 4 3 8 9 10 10 9 8 8 8 10 11 11 10 8 8 7 8
2 3 2 3 3 5 4 4 5 6 6 6 6 6 4 3 2 8 9 9 10 10 9 8 11 10 10 8 7 7 8 9 9
2 2 3 3 4 4 5 5 5 6 6 6 6 6 5 5 3 3 10 8 9 9 9 10 10 10 10 10 9 9 8 8 9
2 2 2 3 4 5 5 5 5 5 5 6 6 6 5 4 4 3 6 8 6 8 8 9 10 10 10 9 9 9 10 11 11
2 2 2 3 3 4 4 5 5 4 5 6 5 5 5 4 1 2 3 6 7 5 6 8 9 10 10 10 10 10 10 11 11
1 1 2 2 2 3 4 4 5 4 5 5 4 4 4 3 2 2 2 2 3 6 6 5 6 8 10 11 12 12 11 11 12
2 0 2 2 2 3 4 4 4 5 5 5 3 3 3 3 2 3 3 3 2 4 5 1 1 4 9 10 11 13 14 14 14
2 1 0 2 2 3 4 5 4 3 5 6 2 1 1 1 3 3 2 3 3 4 4 4 0 3 4 10 12 13 13 13 15
3 1 1 1 3 3 4 4 4 4 6 5 4 3 2 1 3 3 3 3 2 3 3 3 3 5 11 11 10 14 13 12 12
3 2 1 1 2 2 3 4 4 2 5 4 4 3 3 3 3 2 3 3 2 4 5 6 7 5 4 4 7 10 13 14 13
3 2 1 1 2 2 2 3 4 4 3 5 3 3 3 6 2 2 2 3 4 5 6 6 6 5 5 5 3 11 13 15 15
3 2 2 1 0 0 2 2 3 3 3 1 3 3 3 3 4 3 4 1 5 2 3 5 4 4 3 1 2 9 12 14 16
3 3 3 2 1 1 1 0 1 2 2 2 3 2 1 1 2 5 6 6 4 4 3 4 4 3 3 3 4 9 13 15 16
Wind_Direction
74 66 63 56 49 44 43 36 33 30 26 21 18 9 348 317 3 358 35 47 41 48 53 53 44 33 26 20 19 9 347 323 287
69 64 59 54 48 44 39 35 32 28 24 20 13 3 343 321 23 14 15 37 12 31 33 28 21 16 13 15 17 14 14 7 3
71 62 54 49 44 39 34 29 27 23 20 18 11 358 340 319 37 20 54 25 1 13 20 15 10 3 9 8 1 359 360 18 29
73 60 54 49 46 40 35 29 24 20 19 14 5 344 319 310 23 335 41 11 348 17 20 26 29 26 16 5 355 354 9 31 33
77 85 55 50 46 40 36 28 19 11 20 16 351 316 294 339 6 38 33 357 4 32 28 13 10 354 346 347 343 38 49 43 33
93 71 60 51 45 40 32 22 359 311 234 92 325 300 9 10 14 55 24 0 359 9 13 8 1 352 344 331 355 22 30 31 26
84 100 112 82 39 82 359 327 289 292 6 13 239 15 360 4 12 70 24 2 358 358 357 2 354 6 359 0 28 28 30 26 20
144 108 105 67 308 19 354 6 19 9 4 10 3 11 356 351 17 76 37 10 5 358 6 5 10 20 33 37 46 42 27 16 11
85 68 47 36 13 8 10 356 5 354 2 5 355 355 356 341 0 98 66 21 10 7 4 4 9 9 13 27 32 26 17 1 358
108 81 45 29 359 6 359 358 350 348 351 348 348 345 350 345 355 66 89 51 21 13 13 11 8 4 1 355 357 357 350 347 347
96 94 43 30 10 359 344 347 341 338 345 333 350 354 344 353 340 353 119 100 53 22 16 10 7 1 356 350 350 345 341 340 340
107 73 46 33 5 338 337 345 335 342 349 346 349 354 3 330 334 342 348 140 124 77 29 14 10 3 356 351 345 341 335 334 329
121 89 62 26 352 338 340 348 341 346 353 345 356 357 356 6 1 351 345 36 355 128 89 28 5 357 350 345 340 335 331 330 326
192 101 85 4 351 346 338 351 355 347 352 325 354 8 18 24 39 27 0 35 317 347 123 161 293 349 340 335 333 331 326 321 315
212 172 129 341 339 357 358 353 351 357 345 323 336 4 30 49 40 12 339 21 348 357 342 336 315 206 325 326 327 325 320 320 314
210 224 245 348 9 12 358 344 351 9 352 292 342 180 175 356 7 359 16 41 14 343 341 313 327 312 326 317 342 328 323 315 310
218 237 271 11 341 30 14 9 337 36 23 343 284 346 165 156 38 42 15 3 328 310 322 330 319 325 326 354 327 353 344 337 328
214 208 227 96 329 30 13 7 10 353 59 23 349 325 356 339 137 103 351 333 329 334 347 312 327 332 325 323 24 3 344 335 331
183 207 206 221 36 315 36 24 7 334 5 283 36 1 357 340 325 2 339 39 296 316 305 329 313 316 314 349 112 352 337 332 328
173 194 195 189 231 59 13 24 328 358 329 359 351 349 308 282 278 301 319 304 345 321 315 307 299 321 288 298 31 336 325 321 318